Back to catalog

CZ-6A DEB

AlivePO
NORAD 60847·DEBRIS·🇨🇳 China

Launched Aug 6, 2024 from Taiyuan Satellite Launch Center

Loading…

Next Passes (next 24 hours)

TLE

FreshSource: Space-Track

Epoch: Sep 14, 2026, 10:23 UTC

1 60847U 24140JA  26257.43276830  .00002476  00000-0  83781-3 0  9990
2 60847  88.9616 259.3663 0020924 273.5130  86.3676 14.36467518109097

Track CZ-6A DEB in real time with AllMySat

Download on the App Store